RH
14 13 12 8 7 8 9 10 10 10 11 10 11 9 6 5 6 13 16 18 25 27 31 34 40 45 42 45 41 47 50 37 36 40 43 42 47 38 39 33 34 35 39 32 31
14 14 13 12 8 8 9 10 11 11 11 11 11 10 9 6 5 7 15 18 19 24 28 35 37 41 46 40 38 43 43 30 33 37 41 40 44 40 54 44 40 36 36 34 32
14 14 14 13 13 9 9 10 10 12 12 12 12 11 10 8 8 12 8 14 19 18 28 34 35 33 38 33 32 41 39 30 34 33 36 42 40 40 46 55 45 41 38 36 36
9 13 14 14 13 13 10 9 11 11 12 13 13 12 11 11 14 14 7 6 16 21 24 29 32 32 29 33 32 33 35 29 28 27 31 40 41 43 40 44 39 38 39 40 39
8 8 10 14 15 14 14 12 10 11 12 13 13 13 12 14 12 10 8 6 12 20 23 23 27 31 27 32 31 31 32 31 29 27 27 30 37 35 40 42 38 37 39 45 43
11 9 8 8 12 16 17 15 14 10 12 14 14 14 14 14 14 12 10 7 10 17 22 21 20 21 22 20 26 33 28 27 31 30 31 28 32 32 32 36 38 38 39 44 46
17 14 11 9 8 8 14 19 18 17 11 13 14 14 14 15 14 14 13 11 12 15 18 18 18 18 21 21 23 24 27 29 28 32 37 28 31 39 34 33 39 38 41 42 46
13 17 18 14 11 9 8 9 18 20 19 13 14 15 16 15 15 17 18 15 14 13 13 13 13 14 19 19 21 22 21 25 27 38 33 28 40 47 40 37 39 41 40 43 43
15 13 13 17 17 13 10 8 9 17 22 21 18 16 17 15 15 16 18 17 16 13 10 11 12 13 15 18 19 24 24 24 27 38 32 32 35 40 30 29 38 41 44 43 43
17 17 16 13 14 18 15 11 9 9 14 21 21 23 18 17 15 16 16 18 16 13 11 9 10 12 12 15 20 22 21 22 23 31 34 33 34 30 32 34 38 38 42 42 43
15 17 19 17 15 14 18 17 15 15 11 14 25 19 20 19 18 18 16 16 16 13 13 12 10 10 12 13 17 19 20 22 24 24 25 27 30 26 24 25 31 36 37 40 43
15 18 19 21 19 17 15 20 22 18 15 13 15 20 19 18 19 18 17 17 18 17 14 13 12 10 12 15 16 18 19 16 18 19 21 24 24 26 26 23 27 34 37 35 41
12 16 18 23 22 22 18 19 21 22 17 11 10 13 20 18 16 17 19 18 18 17 16 14 13 12 11 13 14 14 13 15 17 17 17 25 26 28 27 24 26 28 27 34 35
11 12 17 24 26 26 25 21 20 22 23 15 12 11 13 20 18 17 17 18 19 21 20 17 16 13 12 12 13 12 12 11 13 12 15 18 22 27 24 22 22 26 32 31 34
12 12 14 23 29 30 27 24 22 22 25 18 15 13 10 13 17 18 17 18 17 19 21 20 17 15 12 11 11 11 12 14 13 12 14 14 21 23 23 24 23 30 32 29 28
14 13 14 21 34 31 29 27 26 25 24 19 16 14 12 11 12 19 22 19 17 20 24 22 18 16 15 12 10 10 12 12 13 13 16 16 18 20 25 21 29 25 31 33 25
16 15 17 23 26 34 31 30 30 25 17 20 17 17 15 12 11 13 19 18 17 21 18 19 20 17 15 13 11 9 11 15 17 16 15 13 18 20 24 21 24 25 32 25 25
16 15 21 25 25 28 34 33 31 26 24 20 19 18 17 15 13 13 14 16 15 18 18 19 20 19 17 12 14 13 14 15 18 16 16 15 19 22 23 22 20 19 25 21 28
16 18 26 33 29 25 38 33 31 30 29 25 21 18 19 16 17 16 15 14 15 16 17 17 19 19 18 16 13 15 18 14 15 16 17 17 23 22 19 18 17 21 28 21 28
17 19 28 31 36 28 36 35 32 34 33 29 25 22 18 17 19 17 16 15 14 15 17 16 19 18 17 17 15 13 16 19 16 20 20 15 15 15 18 18 34 40 30 28 35
22 25 39 31 41 32 33 36 32 32 33 30 26 25 22 27 27 20 17 16 15 14 16 16 18 18 17 18 16 15 15 17 17 16 17 16 16 20 23 27 31 32 35 36 41
25 28 36 36 37 39 32 33 32 30 30 31 27 28 31 28 29 25 23 21 23 16 15 16 17 20 20 17 18 17 17 17 18 20 20 22 19 25 24 23 23 37 38 40 42
24 24 29 40 37 32 38 33 33 34 32 30 29 25 24 24 25 24 27 37 28 22 23 17 17 19 19 18 16 17 17 19 18 19 21 21 27 33 29 25 23 33 37 39 42
24 36 46 40 41 37 37 39 33 31 29 27 27 26 24 24 25 27 29 32 27 32 26 22 19 19 16 17 17 20 18 18 18 21 21 18 23 37 33 30 25 28 38 35 38
29 34 46 57 49 39 39 43 50 46 37 30 29 26 24 24 25 24 24 32 27 25 26 23 24 22 20 18 20 17 17 17 16 19 20 22 43 65 43 31 29 30 36 39 43
30 40 41 45 52 56 49 47 52 47 50 45 32 28 28 22 23 24 27 27 33 34 34 32 32 30 30 21 21 19 19 18 16 17 18 21 40 47 47 37 33 34 36 41 45
25 25 28 39 54 62 65 66 56 52 46 37 35 39 34 32 25 22 30 37 38 43 44 37 39 42 26 21 21 20 16 15 19 18 21 35 65 52 40 39 40 40 37 37 44